Tracking 33747 objects as of 12-Apr-2026
HD Live streaming from Space Station
objects crossing your sky now

KUIPER-00222

Track KUIPER-00222 now!
10-day predictions
KUIPER-00222 is classified as:


NORAD ID: 67782
Int'l Code: 2026-030U
Perigee: 471.6 km
Apogee: 494.7 km
Inclination: 51.9 °
Period: 94.1 minutes
Semi major axis: 6854 km
RCS: Unknown
Launch date: February 12, 2026
Source: France (FR)
Launch site: FRENCH GUIANA (FRGUI)
Your satellite tracking list
Your tracking list is empty




NASA's NSSDC Master Catalog

Two Line Element Set (TLE):
1 67782U 26030U   26101.89639644  .00015034  00000-0  52063-3 0  9992
2 67782  51.8812  60.5988 0016886 172.5787 187.5450 15.29931664 10174
Source of the keplerian elements: AFSPC